Aérodrome :
LOGIN :

S'inscrire | Disclaimer

   EN    FR    IT 

 










Légende :    VFR   VFR Marginal   IFR   IFR Intensif   IFR Très Intensif
Visi : 
Plafond : 
>= 8 km
>= 3000ft
5 à 8 km
1000 à 3000 ft
1500m à 5 km
500 à 1000 ft
800 à 1500m
200 à 500 ft
< 800m
< 200 ft
Symboles :   Orages  Brouillard  Fortes neiges  Fortes précipitations  Vent > 20 kt
SIGMETs :   Divers  Orages  Givrage  Turbulence  Onde Orograph.  Cendres Volcan.






- Altitude de l'aérodrome : 915 ft
- Code IATA : LUG


LSZA - Lugano

DERNIER METAR :
  • 271450Z VRB01KT 9999 VCSH SCT060 OVC090 09/M07 Q1007 NOSIG

METARs EXPIRÉS :
  • 271420Z VRB01KT 9999 VCSH SCT060 OVC090 09/M09 Q1006 NOSIG
  • 271350Z VRB02KT 9999 BKN095 09/M10 Q1007 NOSIG
  • 271320Z VRB03KT 9999 BKN090 BKN100 09/M10 Q1007 NOSIG
  • 271250Z 22003KT 180V260 9999 SCT095 BKN120 09/M09 Q1008 NOSIG
  • 271220Z VRB02KT 9999 BKN095 09/M10 Q1008 NOSIG

TAF TAF LSZA
Valide du 27 à 15h jusqu'au 28 à 00h UTC


271425Z 2715/2724 VRB03KT 9999 BKN095
PROB40 2718/2721 01010KT
ATIS : +41 22 417 40 88



MET'MAP, la Météo Aéronautique d'un coup d'oeil ! - Copyright ORBIFLY Décembre 2007 - Disclaimer

ORBIFLY MET'MAP TEAM :

Programmation & Développement : Alexandra Zaïnal
Sur une idée originale de : Baudouin d'Aumeries
Assistance à la programmation : Marc-Olivier Méhu
Soutien technique & logistique : Manuel Goepfert

Contact : metmap@orbifly.com




SOURCES & CREDITS :

   NOAA